[[{"header":{"parameterUnit":"m.s-1","parameterCategory":1,"la1":30.2991,"la2":30.254,"lo1":-89.0895,"lo2":-89.0444,"dy":0.0017,"dx":0.0017,"nx":28,"ny":28,"refTime":"2023-10-17T09:00:00:Z","depth":0,"parameterNumber":2,"parameterNumberName":"U-component_of_WINDS"},"data":[0,0,0,0,0,0,0,0,0,0,0,0,0,0,0,0,0,0,0,0,0,0,0,0,0,0,0,0,0,0,0,0,0,0,0,0,0,0,0,0,0,0,0,0,0,0,0,0,0,0,0,0,0,0,0,0,0,0,1.0557,1.0557,0,1.0553,1.0553,1.0553,1.0472,1.0469,1.0467,1.0465,1.0466,1.0467,1.0469,0,0,0,0,0,0,0,0,0,0,0,0,0,1.0499,1.0501,1.0557,1.0557,1.0557,1.0553,1.0553,1.0553,1.0472,1.0469,1.0467,1.0464,1.0465,1.0467,1.047,0,0,0,0,0,0,0,0,0,0,0,0,0,1.0513,1.0501,1.0557,1.0516,1.0512,1.0553,1.0553,1.0553,1.0472,1.0469,1.0466,1.0463,1.0464,1.0467,1.047,1.0551,0,0,1.0479,1.048,0,0,0,0,0,0,0,0,1.0512,1.0515,1.0522,1.0519,1.0515,1.0509,1.0532,1.0552,1.0473,1.0488,1.0465,1.0462,1.0483,1.0484,1.049,1.0551,1.0551,1.0479,1.0481,1.0482,1.0483,0,0,0,0,0,0,0,1.0511,1.0515,1.0555,1.0522,1.0518,1.0499,1.0498,1.0536,1.0503,1.0486,1.048,1.0481,1.048,1.0488,1.049,1.0551,1.0479,1.0482,1.0483,1.0485,1.0679,1.0683,0,0,0,0,0,0,1.0515,1.0515,1.0555,1.0555,1.0505,1.0503,1.0501,1.0514,1.0502,1.0497,1.0483,1.0477,1.0484,1.0487,1.049,1.0585,1.0482,1.0485,1.0487,1.0676,1.068,1.0684,0,0,0,0,0,0,1.0514,1.052,1.0556,1.0533,1.0536,1.0507,1.0523,1.0516,1.0523,1.05,1.0494,1.0497,1.0482,1.0485,1.0536,1.0583,1.0486,1.0489,1.0672,1.0677,1.0682,1.0775,0,0,0,0,0,0,1.0513,1.052,1.0549,1.0534,1.0538,1.0601,1.0525,1.0518,1.0528,1.0519,1.0511,1.0507,1.048,1.0532,1.0539,1.0586,1.0491,1.0668,1.0674,1.068,1.0767,1.0782,1.0795,0,0,0,0,0,1.0511,1.0576,1.0551,1.0556,1.0574,1.0604,1.0606,1.0572,1.0532,1.0562,1.0548,1.0507,1.0577,1.0538,1.0545,1.0593,1.0664,1.0672,1.068,1.0761,1.078,1.0795,0,0,0,0,0,0,1.0598,1.0573,1.0545,1.0607,1.0608,1.059,1.0627,1.0593,1.0606,1.0598,1.0557,1.0556,1.0614,1.0608,1.0566,1.0672,1.0614,1.0623,1.0673,1.069,1.0704,1.0705,1.0494,0,0,0,0,0,1.0624,1.065,1.0627,1.0684,1.0686,1.0657,1.0669,1.0642,1.0643,1.0643,1.0632,1.0635,1.0658,1.0674,1.0693,1.0766,1.0764,1.0803,1.0817,1.0828,1.0837,1.0877,1.0895,1.0709,1.0709,1.0709,0,0,1.0679,1.0669,1.0687,1.0701,1.0699,1.0728,1.0657,1.0691,1.0712,1.0648,1.0696,1.0688,1.0689,1.0752,1.0779,1.0749,1.0888,1.0838,1.0848,1.085,1.0887,1.0905,1.092,1.0714,1.0713,1.0712,0,0,1.0794,1.0788,1.0834,1.0834,1.0831,1.0811,1.0823,1.081,1.0803,1.0849,1.0802,1.0828,1.0868,1.087,1.0877,1.0994,1.0958,1.1002,1.1075,1.1114,1.1129,1.1142,1.1185,1.1201,1.1011,1.1011,1.1011,0,1.0862,1.0902,1.0863,1.09,1.0908,1.0851,1.0899,1.0901,1.0906,1.0913,1.088,1.0929,1.0925,1.0988,1.1017,1.1024,1.1037,1.1003,1.113,1.1142,1.1154,1.1194,1.121,1.1016,1.1016,1.1015,1.1015,0,1.0988,1.1016,1.1055,1.106,1.1072,1.1115,1.1084,1.1102,1.1075,1.106,1.1109,1.1102,1.112,1.1133,1.1108,1.1194,1.1175,1.1137,1.1077,1.1177,1.1215,1.123,1.1024,1.1022,1.102,1.1019,0,0,1.1156,1.1139,1.1154,1.1157,1.115,1.1172,1.1213,1.1229,1.1246,1.1251,1.1286,1.1321,1.1285,1.1293,1.1267,1.1302,1.1396,1.1258,1.1258,1.1285,1.1492,1.1522,1.1541,1.1372,1.1375,1.1377,1.1493,0,1.1268,1.1335,1.1302,1.1373,1.1401,1.1347,1.1383,1.1384,1.1371,1.1393,1.1379,1.1405,1.1355,1.136,1.1391,1.1378,1.1438,1.1369,1.1405,1.1407,1.1408,1.156,1.1592,1.1701,1.1507,1.151,1.1511,0,1.1406,1.1417,1.1491,1.1481,1.1491,1.1523,1.1536,1.1558,1.1558,1.1547,1.1556,1.1523,1.1564,1.1505,1.1562,1.1516,1.1529,1.1525,1.1529,1.1531,1.1466,1.1568,1.1735,1.1752,1.1534,1.1532,1.153,0,1.1524,1.1556,1.1605,1.1609,1.1597,1.1622,1.1618,1.1616,1.1628,1.164,1.1648,1.1665,1.1675,1.169,1.1663,1.1622,1.1725,1.1663,1.1717,1.1718,1.1742,1.1741,1.1914,1.1749,1.1749,1.1748,1.1748,0,1.1652,1.17,1.1658,1.1688,1.1741,1.1703,1.1757,1.1748,1.1747,1.1776,1.1731,1.1759,1.1721,1.1747,1.1726,1.1778,1.1782,1.1775,1.1769,1.178,1.1781,1.1788,1.178,1.1753,1.1752,1.1751,1.175,0,1.1792,1.1766,1.1816,1.1801,1.1798,1.1838,1.1826,1.1855,1.1838,1.1876,1.1882,1.1858,1.1886,1.186,1.1887,1.1873,1.1942,1.1924,1.1941,1.1937,1.1993,1.1989,1.2178,1.2202,1.2021,1.2022,1.2024,0,1.1876,1.1912,1.1901,1.1916,1.1915,1.1941,1.1953,1.1918,1.1933,1.1937,1.1966,1.1989,1.2006,1.2053,1.2039,1.206,1.2043,1.2108,1.2046,1.2056,1.2046,1.2044,1.2048,1.2121,1.2123,1.2125,1.2126,0,1.2028,1.2014,1.2032,1.2047,1.2063,1.2073,1.208,1.2096,1.206,1.208,1.2106,1.212,1.2147,1.2172,1.2188,1.2186,1.2151,1.2146,1.216,1.2171,1.218,1.2177,1.1977,1.2142,1.214,1.2139,1.2138,1.2138,1.2144,1.2173,1.217,1.2193,1.2195,1.2202,1.2228,1.2216,1.2237,1.2256,1.2234,1.2268,1.2269,1.2287,1.229,1.2317,1.229,1.2309,1.2315,1.232,1.2329,1.2175,1.2319,1.2319,1.2318,1.2318,1.2318,0,1.2295,1.229,1.2311,1.2322,1.2341,1.2305,1.2311,1.233,1.2359,1.2363,1.238,1.2413,1.2437,1.2424,1.2446,1.247,1.2455,1.2477,1.2475,1.2476,1.2352,1.2338,1.2489,1.2489,1.2489,1.2489,1.2489,1.2489,1.2375,1.2424,1.2409,1.2459,1.2454,1.2486,1.2493,1.2501,1.2503,1.2541,1.256,1.2551,1.2549,1.257,1.2591,1.2587,1.2597,1.2626,1.2616,1.2501,1.2484,1.2468,1.2455,1.2628,1.2628,1.2738,1.2739,1.274]},{"header":{"parameterUnit":"m.s-1","parameterCategory":1,"la1":30.2991,"la2":30.254,"lo1":-89.0895,"lo2":-89.0444,"dy":0.0017,"dx":0.0017,"nx":28,"ny":28,"refTime":"2023-10-17T09:00:00:Z","depth":0,"parameterNumber":3,"parameterNumberName":"V-component_of_WINDS"},"data":[0,0,0,0,0,0,0,0,0,0,0,0,0,0,0,0,0,0,0,0,0,0,0,0,0,0,0,0,0,0,0,0,0,0,0,0,0,0,0,0,0,0,0,0,0,0,0,0,0,0,0,0,0,0,0,0,0,0,-0.601,-0.6011,0,-0.6086,-0.6087,-0.6088,-0.6174,-0.6175,-0.6177,-0.6178,-0.6256,-0.6257,-0.6258,0,0,0,0,0,0,0,0,0,0,0,0,0,-0.5938,-0.5939,-0.601,-0.6011,-0.6012,-0.6086,-0.6087,-0.6088,-0.6174,-0.6175,-0.6177,-0.6178,-0.6256,-0.6257,-0.6258,0,0,0,0,0,0,0,0,0,0,0,0,0,-0.5987,-0.5939,-0.6009,-0.6063,-0.6069,-0.6086,-0.6087,-0.6089,-0.6174,-0.6176,-0.6177,-0.6179,-0.6255,-0.6257,-0.6258,-0.6228,0,0,-0.6262,-0.6263,0,0,0,0,0,0,0,0,-0.5984,-0.599,-0.6054,-0.606,-0.6066,-0.6123,-0.6091,-0.6135,-0.6173,-0.6134,-0.6178,-0.618,-0.621,-0.6215,-0.6226,-0.6232,-0.6235,-0.6262,-0.6263,-0.6264,-0.6264,0,0,0,0,0,0,0,-0.5981,-0.5987,-0.604,-0.6055,-0.6062,-0.6084,-0.6093,-0.61,-0.616,-0.6137,-0.6144,-0.6152,-0.6214,-0.6224,-0.6228,-0.6237,-0.6262,-0.6263,-0.6264,-0.6265,-0.6224,-0.6222,0,0,0,0,0,0,-0.5969,-0.5983,-0.6038,-0.6042,-0.6029,-0.6083,-0.6094,-0.6102,-0.6161,-0.6171,-0.615,-0.6155,-0.6221,-0.6226,-0.6231,-0.6201,-0.6264,-0.6265,-0.6266,-0.6226,-0.6223,-0.6221,0,0,0,0,0,0,-0.5967,-0.5973,-0.6035,-0.6015,-0.6024,-0.6083,-0.6092,-0.6103,-0.6114,-0.617,-0.6181,-0.6149,-0.6222,-0.6229,-0.6229,-0.6205,-0.6266,-0.6267,-0.6228,-0.6225,-0.6222,-0.6139,0,0,0,0,0,0,-0.5965,-0.5972,-0.5961,-0.6014,-0.6025,-0.603,-0.609,-0.6103,-0.6116,-0.6123,-0.6173,-0.6182,-0.6224,-0.6226,-0.623,-0.6208,-0.6268,-0.623,-0.6227,-0.6223,-0.6144,-0.6134,-0.6125,0,0,0,0,0,-0.5962,-0.5934,-0.596,-0.5966,-0.6012,-0.6029,-0.6035,-0.6084,-0.6113,-0.6103,-0.614,-0.6181,-0.6207,-0.6225,-0.623,-0.6208,-0.6232,-0.6228,-0.6224,-0.6149,-0.6136,-0.6125,0,0,0,0,0,0,-0.5877,-0.5942,-0.5971,-0.596,-0.5988,-0.6043,-0.6032,-0.6069,-0.6089,-0.6096,-0.6156,-0.6166,-0.6158,-0.6184,-0.6203,-0.6183,-0.6226,-0.6222,-0.6167,-0.6155,-0.6145,-0.6139,-0.6269,0,0,0,0,0,-0.5856,-0.5864,-0.5921,-0.5905,-0.5918,-0.5972,-0.5981,-0.6017,-0.6048,-0.6061,-0.6097,-0.6126,-0.6141,-0.615,-0.6166,-0.6149,-0.6161,-0.6136,-0.6126,-0.6118,-0.6114,-0.6107,-0.6097,-0.6207,-0.6207,-0.6207,0,0,-0.5815,-0.5852,-0.5853,-0.5889,-0.5915,-0.5922,-0.5982,-0.5986,-0.5992,-0.6061,-0.6063,-0.6091,-0.6128,-0.6118,-0.6116,-0.6139,-0.6086,-0.6112,-0.6105,-0.6106,-0.6102,-0.6091,-0.6082,-0.6204,-0.6205,-0.6205,0,0,-0.5742,-0.5771,-0.5761,-0.5786,-0.5825,-0.5862,-0.5859,-0.5909,-0.593,-0.5933,-0.5986,-0.5994,-0.6018,-0.6042,-0.6058,-0.5996,-0.6035,-0.6,-0.5948,-0.5941,-0.5932,-0.5925,-0.5903,-0.5895,-0.5996,-0.5995,-0.5995,0,-0.5686,-0.5698,-0.5752,-0.5753,-0.5768,-0.5832,-0.5823,-0.5844,-0.5886,-0.5895,-0.592,-0.5953,-0.5982,-0.598,-0.5965,-0.5975,-0.5975,-0.5994,-0.5929,-0.5922,-0.5916,-0.5896,-0.5888,-0.5991,-0.5991,-0.5992,-0.5992,0,-0.5627,-0.5634,-0.5622,-0.5662,-0.5675,-0.5671,-0.5724,-0.5732,-0.5766,-0.58,-0.5803,-0.584,-0.5866,-0.5868,-0.5902,-0.5871,-0.5884,-0.5918,-0.5962,-0.59,-0.5883,-0.5875,-0.5984,-0.5986,-0.5987,-0.5988,0,0,-0.5502,-0.5572,-0.5566,-0.5585,-0.5633,-0.5641,-0.564,-0.5666,-0.5671,-0.5698,-0.5699,-0.5719,-0.5751,-0.5769,-0.5806,-0.58,-0.5749,-0.5835,-0.5837,-0.5818,-0.5718,-0.5692,-0.5682,-0.5775,-0.5774,-0.5773,-0.5715,0,-0.5438,-0.544,-0.5489,-0.5478,-0.5486,-0.5548,-0.5547,-0.5577,-0.5609,-0.5621,-0.5656,-0.5669,-0.5711,-0.5722,-0.5718,-0.5756,-0.573,-0.5761,-0.5777,-0.5777,-0.5766,-0.5672,-0.5644,-0.5588,-0.5708,-0.5707,-0.5706,0,-0.5363,-0.5387,-0.5376,-0.5426,-0.5431,-0.543,-0.5458,-0.5468,-0.5503,-0.5527,-0.5547,-0.5589,-0.5593,-0.5635,-0.5641,-0.5661,-0.5671,-0.569,-0.5689,-0.5693,-0.5738,-0.5673,-0.5571,-0.5562,-0.5696,-0.5697,-0.5697,0,-0.5273,-0.5302,-0.53,-0.5314,-0.5372,-0.537,-0.5393,-0.5431,-0.5443,-0.5468,-0.5477,-0.5501,-0.5514,-0.5533,-0.5581,-0.5607,-0.5582,-0.5627,-0.5602,-0.56,-0.5593,-0.5593,-0.5491,-0.56,-0.56,-0.56,-0.56,0,-0.5197,-0.5188,-0.526,-0.5259,-0.5251,-0.5308,-0.5299,-0.5329,-0.5362,-0.5368,-0.5422,-0.5427,-0.549,-0.5502,-0.554,-0.5539,-0.5545,-0.5565,-0.5575,-0.556,-0.5557,-0.5567,-0.5572,-0.5598,-0.5598,-0.5599,-0.5599,0,-0.5094,-0.5142,-0.5144,-0.5199,-0.5212,-0.5204,-0.5251,-0.5253,-0.5288,-0.5295,-0.53,-0.5356,-0.5373,-0.5423,-0.5453,-0.5478,-0.5467,-0.5486,-0.5454,-0.5461,-0.5433,-0.5435,-0.5333,-0.5323,-0.5438,-0.5436,-0.5436,0,-0.5042,-0.5037,-0.5091,-0.5099,-0.5121,-0.5133,-0.5146,-0.5202,-0.5213,-0.5254,-0.525,-0.5272,-0.5292,-0.5316,-0.5359,-0.5383,-0.5403,-0.5366,-0.5407,-0.5392,-0.5403,-0.5402,-0.5402,-0.5356,-0.5355,-0.5354,-0.5353,0,-0.4944,-0.4969,-0.4986,-0.5011,-0.5025,-0.5048,-0.5074,-0.5077,-0.514,-0.5151,-0.5169,-0.5184,-0.5215,-0.5235,-0.5266,-0.5291,-0.5332,-0.534,-0.5335,-0.5319,-0.5302,-0.5311,-0.543,-0.5342,-0.5343,-0.5343,-0.5344,-0.5345,-0.4866,-0.4864,-0.4902,-0.492,-0.4945,-0.4968,-0.4973,-0.5009,-0.5025,-0.5054,-0.5086,-0.5101,-0.5138,-0.5183,-0.5205,-0.5218,-0.524,-0.5233,-0.5231,-0.5229,-0.5222,-0.53,-0.5224,-0.5224,-0.5224,-0.5225,-0.5225,0,-0.4771,-0.4799,-0.4814,-0.4849,-0.4863,-0.4901,-0.4932,-0.4941,-0.4953,-0.4984,-0.5002,-0.5024,-0.5044,-0.509,-0.5115,-0.5116,-0.5136,-0.5121,-0.5121,-0.5127,-0.5201,-0.5202,-0.5105,-0.5105,-0.5105,-0.5105,-0.5105,-0.5105,-0.4723,-0.4723,-0.4752,-0.4765,-0.4794,-0.4808,-0.4823,-0.4845,-0.487,-0.4891,-0.4908,-0.4938,-0.4975,-0.5003,-0.5024,-0.5038,-0.5044,-0.5023,-0.5042,-0.511,-0.5121,-0.5132,-0.5134,-0.5024,-0.5024,-0.4967,-0.4967,-0.4966]}]]